Location: Guferjoch
(46.7462°N, 8.4506°E)
Time: 12:27:57
(UTC+00:00)

CZ-4C R/B - Pass Details

Date: 14 July 2020
Orbit: 463 x 636 km, 98.0° (Epoch: 06 August)

Event Time Altitude Azimuth Distance (km) Brightness Sun altitude
Exits shadow 01:11:27 41° 175° (S) 774 3.6 -18.0°
Maximum altitude 01:12:42 81° 256° (WSW) 531 3.1 -17.9°
Drops below altitude 10° 01:16:24 10° 345° (NNW) 1,715 6.5 -17.7°
Sets 01:18:26 0° 346° (NNW) 2,580 7.6 -17.5°
